Météo par heure à Jurasze

Ce jour, 16 Juin, Mercredi

Heure Température Précipitation Vent Pression Humidité
00:00 +12°C° 0 mm 3 m/s 750 mmHg 92%
01:00 +11°C° 0 mm 3 m/s 750 mmHg 91%
02:00 +10°C° 0 mm 2 m/s 750 mmHg 90%
03:00 +9°C° 0 mm 2 m/s 750 mmHg 91%
04:00 +8°C° 0 mm 2 m/s 750 mmHg 92%
05:00 +8°C° 0 mm 2 m/s 750 mmHg 93%
06:00 +10°C° 0 mm 2 m/s 751 mmHg 86%
07:00 +13°C° 0 mm 2 m/s 751 mmHg 80%
08:00 +15°C° 0 mm 2 m/s 751 mmHg 73%
09:00 +16°C° 0 mm 2 m/s 751 mmHg 66%
10:00 +18°C° 0 mm 2 m/s 751 mmHg 58%
11:00 +19°C° 0 mm 2 m/s 751 mmHg 50%
12:00 +20°C° 0 mm 2 m/s 751 mmHg 48%
13:00 +21°C° 0 mm 2 m/s 751 mmHg 46%
14:00 +23°C° 0 mm 2 m/s 751 mmHg 44%
15:00 +23°C° 0 mm 2 m/s 751 mmHg 45%
16:00 +23°C° 0 mm 2 m/s 751 mmHg 46%
17:00 +23°C° 0 mm 2 m/s 751 mmHg 47%
18:00 +21°C° 0 mm 2 m/s 751 mmHg 56%
19:00 +19°C° 0 mm 2 m/s 751 mmHg 65%
20:00 +18°C° 0 mm 2 m/s 751 mmHg 74%
21:00 +16°C° 0 mm 2 m/s 752 mmHg 78%
22:00 +15°C° 0 mm 2 m/s 752 mmHg 82%
23:00 +14°C° 0 mm 2 m/s 752 mmHg 85%

Demain, 17 Juin, Jeudi

Heure Température Précipitation Vent Pression Humidité
00:00 +13°C° 0 mm 2 m/s 753 mmHg 86%
01:00 +13°C° 0 mm 2 m/s 753 mmHg 88%
02:00 +12°C° 0 mm 2 m/s 753 mmHg 89%
03:00 +12°C° 0 mm 2 m/s 753 mmHg 88%
04:00 +12°C° 0 mm 2 m/s 753 mmHg 88%
05:00 +12°C° 0 mm 2 m/s 753 mmHg 87%
06:00 +14°C° 0 mm 2 m/s 753 mmHg 80%
07:00 +16°C° 0 mm 2 m/s 754 mmHg 73%
08:00 +18°C° 0 mm 2 m/s 754 mmHg 66%
09:00 +19°C° 0 mm 2 m/s 754 mmHg 62%
10:00 +21°C° 0 mm 2 m/s 754 mmHg 58%
11:00 +22°C° 0 mm 3 m/s 754 mmHg 53%
12:00 +24°C° 0 mm 3 m/s 754 mmHg 52%
13:00 +25°C° 0 mm 3 m/s 754 mmHg 50%
14:00 +25°C° 0 mm 3 m/s 754 mmHg 48%
15:00 +25°C° 0 mm 3 m/s 754 mmHg 50%
16:00 +25°C° 0 mm 3 m/s 754 mmHg 52%
17:00 +25°C° 0 mm 3 m/s 754 mmHg 54%
18:00 +24°C° 0 mm 3 m/s 754 mmHg 61%
19:00 +21°C° 0 mm 3 m/s 754 mmHg 68%
20:00 +20°C° 0 mm 2 m/s 754 mmHg 75%
21:00 +19°C° 0 mm 2 m/s 754 mmHg 78%
22:00 +18°C° 0 mm 2 m/s 754 mmHg 80%
23:00 +16°C° 0 mm 2 m/s 754 mmHg 83%

Après-demain, 18 Juin, Vendredi

Heure Température Précipitation Vent Pression Humidité
00:00 +16°C° 0 mm 2 m/s 754 mmHg 85%
01:00 +16°C° 0 mm 2 m/s 754 mmHg 87%
02:00 +15°C° 0 mm 2 m/s 754 mmHg 88%
03:00 +15°C° 0 mm 2 m/s 754 mmHg 88%
04:00 +15°C° 0 mm 2 m/s 754 mmHg 89%
05:00 +15°C° 0 mm 2 m/s 754 mmHg 89%
06:00 +17°C° 0 mm 3 m/s 754 mmHg 83%
07:00 +19°C° 0 mm 3 m/s 754 mmHg 77%
08:00 +21°C° 0 mm 3 m/s 754 mmHg 71%
09:00 +23°C° 0 mm 4 m/s 754 mmHg 66%
10:00 +25°C° 0 mm 4 m/s 754 mmHg 62%
11:00 +26°C° 0 mm 4 m/s 754 mmHg 57%
12:00 +27°C° 0 mm 4 m/s 754 mmHg 55%
13:00 +27°C° 0 mm 4 m/s 754 mmHg 54%
14:00 +28°C° 0 mm 4 m/s 754 mmHg 52%
15:00 +28°C° 0 mm 4 m/s 753 mmHg 53%
16:00 +27°C° 0 mm 4 m/s 753 mmHg 55%
17:00 +27°C° 0 mm 4 m/s 753 mmHg 56%
18:00 +26°C° 0 mm 3 m/s 753 mmHg 63%
19:00 +24°C° 0 mm 3 m/s 753 mmHg 70%
20:00 +22°C° 0 mm 3 m/s 753 mmHg 77%
21:00 +20°C° 0 mm 3 m/s 753 mmHg 81%
22:00 +19°C° 0 mm 3 m/s 753 mmHg 84%
23:00 +18°C° 0 mm 3 m/s 753 mmHg 88%

19 Juin, Samedi

Heure Température Précipitation Vent Pression Humidité
00:00 +17°C° 0 mm 3 m/s 753 mmHg 88%
01:00 +17°C° 0 mm 2 m/s 753 mmHg 89%
02:00 +16°C° 0 mm 2 m/s 753 mmHg 89%
03:00 +16°C° 0 mm 2 m/s 753 mmHg 89%
04:00 +16°C° 0 mm 2 m/s 753 mmHg 89%
05:00 +16°C° 0 mm 2 m/s 753 mmHg 89%
06:00 +18°C° 0 mm 3 m/s 753 mmHg 84%
07:00 +20°C° 0 mm 3 m/s 753 mmHg 78%
08:00 +22°C° 0 mm 3 m/s 753 mmHg 73%
09:00 +25°C° 0 mm 4 m/s 753 mmHg 68%
10:00 +26°C° 0 mm 4 m/s 753 mmHg 64%
11:00 +27°C° 0 mm 4 m/s 752 mmHg 59%
12:00 +28°C° 0 mm 4 m/s 752 mmHg 57%
13:00 +28°C° 0 mm 4 m/s 752 mmHg 55%
14:00 +29°C° 0 mm 4 m/s 752 mmHg 53%
15:00 +29°C° 0 mm 4 m/s 752 mmHg 55%
16:00 +29°C° 0 mm 4 m/s 751 mmHg 57%
17:00 +29°C° 0 mm 4 m/s 751 mmHg 59%
18:00 +27°C° 0 mm 4 m/s 751 mmHg 65%
19:00 +26°C° 0 mm 3 m/s 751 mmHg 72%
20:00 +24°C° 0 mm 3 m/s 751 mmHg 78%
21:00 +22°C° 0 mm 3 m/s 751 mmHg 80%
22:00 +21°C° 0 mm 3 m/s 751 mmHg 81%
23:00 +20°C° 0 mm 3 m/s 751 mmHg 83%

20 Juin, Dimanche

Heure Température Précipitation Vent Pression Humidité
00:00 +19°C° 0 mm 3 m/s 751 mmHg 86%
01:00 +19°C° 0 mm 3 m/s 751 mmHg 88%
02:00 +18°C° 0 mm 3 m/s 751 mmHg 91%
03:00 +18°C° 0 mm 2 m/s 751 mmHg 91%
04:00 +18°C° 0 mm 2 m/s 751 mmHg 91%
05:00 +18°C° 0 mm 2 m/s 751 mmHg 91%
06:00 +20°C° 0 mm 3 m/s 751 mmHg 85%
07:00 +21°C° 0 mm 3 m/s 751 mmHg 79%
08:00 +23°C° 0 mm 4 m/s 751 mmHg 73%
09:00 +25°C° 0 mm 4 m/s 751 mmHg 68%
10:00 +26°C° 0 mm 4 m/s 751 mmHg 64%
11:00 +27°C° 0 mm 5 m/s 751 mmHg 60%
12:00 +28°C° 0 mm 4 m/s 750 mmHg 57%
13:00 +29°C° 0 mm 4 m/s 750 mmHg 54%
14:00 +29°C° 0 mm 4 m/s 750 mmHg 51%
15:00 +29°C° 0 mm 4 m/s 750 mmHg 54%
16:00 +28°C° 0 mm 3 m/s 749 mmHg 58%
17:00 +28°C° 0 mm 3 m/s 749 mmHg 61%
18:00 +27°C° 0.1 mm 3 m/s 749 mmHg 67%
19:00 +25°C° 0.1 mm 3 m/s 749 mmHg 74%
20:00 +24°C° 0.1 mm 3 m/s 749 mmHg 81%
21:00 +22°C° 0 mm 3 m/s 749 mmHg 84%
22:00 +21°C° 0 mm 3 m/s 749 mmHg 87%
23:00 +20°C° 0 mm 2 m/s 749 mmHg 90%

21 Juin, Lundi

Heure Température Précipitation Vent Pression Humidité
00:00 +19°C° 0 mm 2 m/s 749 mmHg 90%
01:00 +19°C° 0 mm 2 m/s 749 mmHg 91%
02:00 +19°C° 0 mm 2 m/s 749 mmHg 91%
03:00 +19°C° 0 mm 2 m/s 749 mmHg 91%
04:00 +19°C° 0 mm 2 m/s 749 mmHg 91%
05:00 +19°C° 0 mm 2 m/s 749 mmHg 91%
06:00 +20°C° 0 mm 2 m/s 749 mmHg 86%
07:00 +22°C° 0 mm 3 m/s 749 mmHg 80%
08:00 +25°C° 0 mm 3 m/s 749 mmHg 74%
09:00 +26°C° 0 mm 4 m/s 749 mmHg 69%
10:00 +27°C° 0 mm 4 m/s 749 mmHg 63%
11:00 +28°C° 0 mm 5 m/s 749 mmHg 58%
12:00 +29°C° 0 mm 4 m/s 749 mmHg 57%
13:00 +29°C° 0 mm 4 m/s 748 mmHg 55%
14:00 +30°C° 0 mm 4 m/s 748 mmHg 54%
15:00 +30°C° 0 mm 4 m/s 748 mmHg 55%
16:00 +30°C° 0 mm 4 m/s 748 mmHg 57%
17:00 +29°C° 0 mm 4 m/s 748 mmHg 59%
18:00 +28°C° 0 mm 4 m/s 747 mmHg 65%
19:00 +27°C° 0 mm 3 m/s 747 mmHg 72%
20:00 +25°C° 0 mm 3 m/s 747 mmHg 78%
21:00 +24°C° 0 mm 3 m/s 747 mmHg 81%
22:00 +22°C° 0 mm 3 m/s 747 mmHg 84%
23:00 +21°C° 0 mm 3 m/s 747 mmHg 87%
Voir plus

Nous avons besoin de votre consentement

Meteoprog et ses fournisseurs de services peuvent stocker et accéder à des données personnelles telles que des cookies, des identifiants d'appareils ou d'autres technologies similaires sur votre appareil et traiter ces données pour personnaliser le contenu et les publicités, ainsi que pour fournir des fonctionnalités de médias sociaux et analyser le trafic.

  • Stocker et/ou accéder à des informations sur votre appareil

    Des cookies, des identifiants d'appareils ou d'autres informations peuvent être stockés ou accessibles sur votre appareil aux fins indiquées ci-dessus.

  • Annonces et contenus personnalisés, mesure des annonces et des contenus, connaissance de l'audience et développement de produits

    Les annonces et le contenu peuvent être personnalisés en fonction d'un profil. D'autres données peuvent être ajoutées pour mieux personnaliser les annonces et le contenu. Les performances des publicités et du contenu peuvent être mesurées. Il est possible d'obtenir des informations sur le public qui a vu les publicités et le contenu. Ces données peuvent être utilisées pour développer ou améliorer l'expérience de l'utilisateur, les systèmes et les logiciels.

En cliquant sur "J'accepte", vous autorisez l'utilisation de cookies, des identifiants d'appareils, des balises web ou d'autres technologies similaires. Vos paramètres peuvent être modifiés dans le navigateur de votre appareil.

Dans certains cas, des intérêts légitimes peuvent être invoqués plutôt qu'un consentement. Vous pouvez en savoir plus à ce sujet dans notre Politique de confidentialité et de cookies.